Location: Zoubia
(35.0207°N, 0.5833°E)
Time: 12:37:30
(UTC+00:00)

Daily predictions for brighter satellites

Satellite Brightness Start Highest point End
(mag) Time Altitude Azimuth Time Altitude Azimuth Time Altitude Azimuth
Cosmos 1023 Rocket 4.4 17:09:08 10° SSW 17:14:11 79° ESE 17:19:19 10° NNE
Okean 2 Rocket 4.4 17:12:14 10° NNE 17:15:31 20° ENE 17:18:48 10° ESE
Cosmos 2221 Rocket 4.3 17:13:44 10° SSE 17:17:44 33° E 17:21:43 10° NNE
Envisat 3.7 17:13:30 10° SE 17:17:54 31° ENE 17:22:19 10° N
CZ-4B R/B 4.3 17:13:07 10° S 17:18:15 49° W 17:23:30 10° NNW
STARLINK-70 4.3 17:16:07 10° SSW 17:19:50 37° SE 17:23:33 10° ENE
Okean 1-7 3.1 17:16:27 10° S 17:20:47 84° W 17:25:11 10° N
STARLINK-68 4.2 17:17:53 10° SSW 17:21:39 41° SE 17:25:27 10° ENE
Cosmos 1943 4.0 17:18:13 10° SSE 17:23:05 31° ESE 17:27:58 10° NE
STARLINK-58 4.2 17:19:29 10° SSW 17:23:15 40° SE 17:26:59 10° ENE
Cosmos 1975 3.8 17:20:22 10° NNE 17:23:46 26° ENE 17:27:09 10° SE
Sich 1 Rocket 3.9 17:20:03 10° N 17:24:12 42° E 17:28:22 10° SSE
STARLINK-62 4.1 17:21:08 10° SSW 17:24:57 44° SE 17:28:40 11° ENE
BREEZE-M DEB (TANK) 3.2 17:22:41 10° NW 17:25:59 23° NNE 17:27:50 12° ENE
Cosmos 407 Rocket 4.3 17:21:10 10° SSW 17:26:13 54° WNW 17:31:23 10° N
STARLINK-63 4.1 17:22:43 10° SSW 17:26:31 44° SE 17:30:09 11° ENE
Okean O Rocket 3.7 17:24:30 10° SSW 17:28:23 32° W 17:32:17 10° NW
STARLINK-72 4.0 17:25:55 10° SSW 17:29:45 45° SE 17:33:13 12° ENE
Delta 2 Rocket 3.9 17:24:28 10° W 17:29:57 83° N 17:34:43 11° E
STARLINK-26 3.2 17:26:34 10° SW 17:30:03 75° SE 17:33:18 12° NE
Lacrosse 5 1.9 17:26:03 10° SW 17:31:09 89° NW 17:36:16 10° NE
CORIOLIS 4.1 17:27:09 10° SSE 17:32:33 70° ENE 17:37:58 10° N
STARLINK-59 3.9 17:29:13 10° SSW 17:33:06 52° SE 17:36:31 13° ENE
STARLINK-55 3.8 17:32:29 10° SSW 17:36:25 55° SE 17:39:41 14° ENE
CZ-3B R/B 2.9 17:34:45 10° SSW 17:37:13 18° SSE 17:40:39 10° ESE
STARLINK-28 3.7 17:34:09 10° SSW 17:38:06 59° SE 17:41:19 15° NE
Cosmos 2369 Rocket 3.0 17:35:16 10° N 17:40:06 28° ENE 17:44:56 10° ESE
SMAP 3.2 17:35:30 10° S 17:40:09 78° WSW 17:44:49 10° NNW
GPS 2-05 Rocket1 2.1 17:37:51 10° W 17:40:35 90° S 17:42:23 19° E
STARLINK-53 3.6 17:37:24 10° SW 17:41:22 64° SE 17:44:29 16° NE
Okean 3 3.7 17:37:48 10° SSE 17:41:48 46° E 17:45:48 10° NNE
Cosmos 1300 Rocket 4.4 17:39:05 10° NNE 17:42:44 26° ENE 17:46:21 10° SE
Cosmos 1743 2.6 17:39:04 10° N 17:42:58 79° E 17:46:50 10° S
STARLINK-54 3.6 17:39:03 10° SW 17:43:02 67° SE 17:46:05 16° NE
YAOGAN 1 3.8 17:40:45 10° ESE 17:43:55 20° ENE 17:47:06 10° NNE
SL-16 R/B 3.8 17:39:01 10° SW 17:44:03 32° WNW 17:49:07 10° N
Abrixas rocket 4.5 17:44:19 10° NW 17:46:00 14° NNW 17:47:42 10° NNE
STARLINK-34 3.5 17:42:20 10° SW 17:46:20 73° SE 17:49:16 18° NE
COSMO-SKYMED 1 2.7 17:43:24 10° NNE 17:47:40 54° E 17:51:54 10° S
STARLINK-61 3.8 17:44:58 10° SW 17:48:56 62° NW 17:52:04 16° NE
STARLINK-81 3.5 17:45:28 10° SW 17:49:27 70° SE 17:52:11 19° NE
Cosmos 921 Rocket 3.9 17:46:13 10° NNW 17:50:27 52° WSW 17:54:44 10° S
STARLINK-24 3.5 17:47:16 10° SW 17:51:16 81° SE 17:54:02 20° NE
Cosmos 1603 3.7 17:45:44 10° SSW 17:51:25 79° ESE 17:57:11 10° NNE
STARLINK-77 3.5 17:48:45 10° SW 17:52:45 76° SE 17:55:22 21° NE
STARLINK-25 3.5 17:50:24 10° SW 17:54:24 79° SE 17:56:57 21° NE
Cosmos 1943 Rocket 2.4 17:49:24 10° N 17:54:47 45° ENE 18:00:05 10° SE
Cosmos 1655 Rocket 4.0 17:49:43 10° S 17:55:58 68° E 18:02:11 10° NNE
STARLINK-71 3.5 17:52:14 10° SW 17:56:15 88° NW 17:58:49 21° NE
Okean-O 2.5 17:53:09 10° SSE 17:57:34 85° ENE 18:02:01 10° N
STARLINK-79 3.5 17:53:41 10° SW 17:57:41 86° SE 18:00:08 23° NE
STARLINK-78 3.5 17:55:22 10° SW 17:59:23 89° SE 18:01:46 24° NE
STARLINK-57 3.5 17:57:06 10° SW 18:01:07 83° NW 18:03:27 24° NE
STARLINK-49 3.5 17:58:39 10° SW 18:02:40 85° NW 18:04:55 25° NE
OAO 3 Copernicus 4.3 17:58:19 10° W 18:03:24 89° N 18:06:27 25° E
STARLINK-27 3.5 18:00:18 10° SW 18:04:18 82° NW 18:06:30 26° NE
FengYun 1-2 T 4.2 17:59:21 10° SSE 18:04:45 63° ENE 18:10:12 10° N
STARLINK-74 3.5 18:01:57 10° SW 18:05:57 79° NW 18:08:05 27° NE
CSL-04 Rocket 4.0 18:02:24 10° SE 18:07:16 39° ENE 18:12:11 10° N
NOAA 12 4.4 18:02:06 10° S 18:07:22 73° WSW 18:12:40 10° NNW
Aureole 3 Rocket 2.4 18:04:35 10° N 18:07:38 54° E 18:11:14 10° SSE
STARLINK-39 3.6 18:03:38 10° SW 18:07:38 76° NW 18:09:42 27° NE
BREEZE-M R/B 4.3 18:05:06 10° NNW 18:07:44 16° NNE 18:07:44 16° NNE
ADEOS Rocket 4.4 18:09:28 15° ESE 18:09:28 15° ESE 18:11:21 10° SE
Cosmos 1461 2.6 18:04:28 10° SSW 18:08:23 89° ESE 18:10:37 25° NNE
STARLINK 3.6 18:05:17 10° SW 18:09:17 73° NW 18:11:17 28° NE
STARLINK-42 3.7 18:07:03 10° SW 18:11:03 66° NW 18:13:00 28° NNE
STARLINK-21 3.7 18:08:38 10° SW 18:12:38 67° NW 18:14:30 29° NNE
STARLINK-45 4.0 18:10:32 10° WSW 18:14:29 57° NW 18:16:21 28° NNE
SL-4 R/B 4.0 18:12:04 10° NNW 18:13:40 15° NNE 18:13:40 15° NNE
NOSS 2-1 (E) 3.9 18:11:39 10° S 18:14:37 31° ESE 18:14:37 31° ESE
STARLINK-75 4.1 18:12:20 10° WSW 18:16:16 52° NW 18:18:06 28° NNE
STARLINK-76 3.9 18:13:37 10° WSW 18:17:34 59° NW 18:19:16 31° NNE
Cosmos 405 Rocket 2.5 18:13:51 10° N 18:17:35 79° E 18:21:21 10° S
Meteor 2-4 Rocket 3.8 18:13:18 10° S 18:19:11 87° W 18:24:58 10° N
STARLINK 4.0 18:15:17 10° WSW 18:19:14 57° NW 18:20:50 32° NNE
STARLINK-32 4.0 18:16:57 10° WSW 18:20:53 55° NW 18:22:26 32° NNE
Cosmos 2266 Rocket 3.9 18:14:51 10° S 18:21:14 73° E 18:27:34 10° N
STARLINK-40 4.1 18:18:37 10° WSW 18:22:32 53° NW 18:24:01 33° NNE
YAOGAN 6 2.8 18:20:12 10° S 18:23:42 68° W 18:27:18 10° NNW
STARLINK-44 4.1 18:20:17 10° WSW 18:24:11 51° NW 18:25:37 33° NNE
STARLINK-37 4.3 18:22:06 10° WSW 18:25:59 47° NW 18:27:21 32° N
S3M 3.9 18:20:27 10° N 18:26:38 89° W 18:32:44 10° S
STARLINK-36 4.2 18:23:27 10° WSW 18:27:20 48° NW 18:28:37 34° N
Cosmos 2151 Rocket 3.4 18:23:11 10° N 18:27:35 83° E 18:31:58 10° S
Cosmos 1867 4.5 18:23:42 10° NW 18:28:57 50° WSW 18:34:09 10° S
STARLINK-41 4.3 18:25:16 10° WSW 18:29:09 47° NW 18:30:21 35° N
STARLINK-64 4.3 18:26:58 10° WSW 18:30:48 45° NW 18:31:56 35° N
CSL-04 Debris 4.0 18:26:20 10° SSE 18:31:45 70° ENE 18:37:09 10° N
STARLINK-35 4.4 18:28:39 10° WSW 18:32:29 43° NW 18:33:34 34° N
STARLINK-51 4.5 18:30:21 10° WSW 18:34:09 41° NW 18:35:10 34° N
DMSP B5D1-3 4.4 18:37:13 29° NNE 18:39:56 80° ESE 18:45:01 10° S
STARLINK 4.4 18:36:44 10° WSW 18:40:32 40° NW 18:41:12 37° NNW
Cosmos 2084 Rocket 4.3 18:36:22 10° SW 18:40:36 48° NW 18:42:10 32° N
Cosmos 1544 3.3 18:37:19 10° NNW 18:40:55 67° W 18:44:31 10° S
CZ-4 R/B 2.1 18:42:40 10° S 18:46:26 50° W 18:50:11 10° NNW
Uosat 12 SS-18 rocket 4.4 18:43:12 10° NW 18:47:35 63° WSW 18:50:04 23° SSE
USA 267 3.1 18:45:12 27° SE 18:49:04 79° NE 18:55:38 10° NW
Cosmos 2263 4.1 18:45:19 10° NNW 18:51:08 82° ENE 18:56:54 10° SSE
CZ-4C R/B 3.5 18:48:12 10° WSW 18:52:36 31° NW 18:55:39 19° N
Cosmos 405 4.3 18:52:49 10° SSW 18:56:08 38° W 18:56:14 38° WNW
SEDSat Delta rocket 4.3 18:52:50 10° WSW 18:59:17 53° SSE 19:00:27 48° SE
NOAA 11 4.2 18:55:29 10° S 19:00:56 80° WSW 19:06:27 10° NNW
NOSS 3-1 (C) 4.0 18:53:50 10° NNW 19:01:45 79° ENE 19:08:34 19° SE
Cosmos 468 Rocket 4.1 19:04:23 10° NNW 19:09:35 75° WSW 19:09:59 70° SW
Meteor 2-8 Rocket 4.4 19:04:45 10° N 19:10:49 77° W 19:16:52 10° S
Delta 2 Rocket 4.3 19:07:29 10° W 19:11:38 55° WSW 19:11:38 55° WSW
USA 229 DEB 3.8 19:06:10 10° NNW 19:13:34 86° WSW 19:17:28 32° SSE
USA 229 3.8 19:06:16 10° NNW 19:13:40 87° WSW 19:17:23 34° SSE
Lacrosse 5 4.0 19:11:27 10° WNW 19:14:45 17° NNW 19:15:40 16° NNW
Cosmos 2315 Rocket 4.1 19:11:42 10° N 19:17:59 75° W 19:24:11 10° S
NOSS 3-1 (A) 4.0 19:11:30 10° NNW 19:19:21 69° ENE 19:19:54 68° E
YAOGAN 1 4.5 19:16:03 10° SSW 19:19:47 29° W 19:23:35 10° NW
Cosmos 2369 Rocket 3.7 19:19:03 10° NW 19:24:05 34° WSW 19:29:09 10° SSW
CZ-3B R/B 2.9 19:25:31 10° WSW 19:28:23 32° SSW 19:28:23 32° SSW
ADEOS Rocket 4.4 19:56:24 28° SW 19:56:24 28° SW 19:59:06 10° SSW
ATLAS 3B CENTAUR R/B 4.2 20:01:23 10° SW 20:08:24 51° S 20:08:24 51° S
CZ-3C R/B 4.0 19:19:41 10° WSW 20:13:03 40° SSW 20:14:32 38° S
